AB9BZ Weather Reports


Display with metric or nautical units.
time (UTC)temp
F
wind
direction
speed
MPH
gust
MPH
rain 1hr
in
rain 24hr
in
rain mn
in
humidity
%
barometer
mb
20260504000520 67 125 3.0 7.0 0.00 0.00 0.00 50 986.0
20260503235507 67 109 4.0 6.0 0.00 0.00 0.00 50 986.0
20260503234536 67 136 3.0 4.0 0.00 0.00 0.00 49 986.1
20260503233506 67 150 3.0 6.0 0.00 0.00 0.00 48 985.9
20260503232512 68 139 4.0 7.0 0.00 0.00 0.00 48 986.0
20260503231502 68 104 3.0 3.0 0.00 0.00 0.00 47 986.2
20260503230510 68 174 5.0 10.0 0.00 0.00 0.00 45 986.3
20260503225459 70 154 7.0 12.0 0.00 0.00 0.00 44 986.4
20260503224507 70 142 5.0 9.0 0.00 0.00 0.00 43 986.6
20260503223515 71 160 6.0 11.0 0.00 0.00 0.00 42 986.6
20260503222505 71 170 7.0 10.0 0.00 0.00 0.00 42 986.7
20260503221512 71 173 5.0 9.0 0.00 0.00 0.00 42 986.9
20260503220503 71 116 5.0 9.0 0.00 0.00 0.00 42 987.0
20260503215509 70 148 6.0 10.0 0.00 0.00 0.00 42 986.9
20260503214518 70 188 7.0 10.0 0.00 0.00 0.00 42 987.1
20260503213528 70 114 5.0 10.0 0.00 0.00 0.00 41 987.3
20260503212515 68 166 6.0 10.0 0.00 0.00 0.00 42 987.6
20260503211506 70 137 4.0 7.0 0.00 0.00 0.00 41 987.6
20260503210512 66 162 6.0 9.0 0.00 0.00 0.00 44 987.8
20260503205502 67 115 5.0 11.0 0.00 0.00 0.00 43 988.1
20260503204509 67 157 10.0 16.0 0.00 0.00 0.00 43 988.2
20260503203518 66 151 6.0 10.0 0.00 0.00 0.00 44 988.4
20260503202507 68 171 6.0 14.0 0.00 0.00 0.00 43 988.5
20260503201514 67 130 8.0 14.0 0.00 0.00 0.00 43 988.7
20260503200524 70 136 8.0 13.0 0.00 0.00 0.00 42 988.7
20260503195512 68 120 7.0 10.0 0.00 0.00 0.00 43 988.9
20260503194520 67 185 11.0 15.0 0.00 0.00 0.00 44 988.9
20260503193509 67 151 8.0 11.0 0.00 0.00 0.00 50 988.9
20260503192517 65 169 8.0 13.0 0.00 0.00 0.00 52 989.2
20260503191506 64 146 8.0 15.0 0.00 0.00 0.00 53 989.4
20260503190515 63 161 7.0 11.0 0.00 0.00 0.00 55 989.6
20260503185544 62 166 6.0 9.0 0.00 0.00 0.00 57 989.9
20260503184513 61 143 7.0 12.0 0.00 0.00 0.00 59 990.1
20260503183521 56 179 8.0 11.0 0.00 0.00 0.00 65 990.3
20260503182531 56 142 7.0 9.0 0.00 0.00 0.00 66 990.7
20260503181519 56 149 7.0 9.0 0.00 0.00 0.00 67 990.8
20260503180507 55 159 6.0 9.0 0.00 0.00 0.00 70 991.4
20260503175512 55 156 6.0 12.0 0.00 0.00 0.00 72 992.1
20260503174520 54 144 5.0 7.0 0.00 0.00 0.00 72 992.2
20260503173510 54 146 6.0 10.0 0.00 0.00 0.00 76 992.6
20260503172539 53 148 5.0 8.0 0.00 0.00 0.00 75 992.9
20260503171507 53 171 5.0 9.0 0.00 0.00 0.00 77 993.1
20260503170516 52 138 6.0 8.0 0.00 0.00 0.00 80 993.2
20260503150518 57 171 4.0 8.0 0.00 0.00 0.00 57 993.8
20260503130522 52 132 4.0 6.0 0.00 0.00 0.00 60 994.5
20260503110524 46 89 2.0 4.0 0.00 0.00 0.00 66 994.2
20260503081552 45 121 1.0 3.0 0.00 0.00 0.00 63 994.8
20260503080521 44 140 2.0 3.0 0.00 0.00 0.00 63 994.8
20260503072534 45 148 2.0 3.0 0.00 0.00 0.00 61 994.9
20260503071523 45 160 1.0 3.0 0.00 0.00 0.00 61 995.0
20260503070531 46 97 2.0 4.0 0.00 0.00 0.00 59 995.0
20260503054503 45 132 2.0 4.0 0.00 0.00 0.00 61 995.7
20260503053512 45 183 1.0 4.0 0.00 0.00 0.00 62 995.9
20260503052500 44 50 1.0 3.0 0.00 0.00 0.00 63 995.9
20260503051508 44 107 1.0 3.0 0.00 0.00 0.00 63 995.9
20260503050458 44 144 1.0 1.0 0.00 0.00 0.00 63 996.0
20260503045505 44 106 0.0 2.0 0.00 0.00 0.00 63 996.0
20260503044455 45 135 0.0 2.0 0.00 0.00 0.00 63 996.2
20260503043503 45 118 0.0 2.0 0.00 0.00 0.00 62 996.1
20260503042534 45 135 1.0 2.0 0.00 0.00 0.00 63 996.2
20260503041520 45 142 1.0 3.0 0.00 0.00 0.00 61 996.3
20260503040632 45 157 1.0 3.0 0.00 0.00 0.00 61 996.2
20260503035458 45 170 0.0 3.0 0.00 0.00 0.00 62 996.2
20260503034507 45 90 0.0 1.0 0.00 0.00 0.00 61 996.2
20260503033457 44 170 1.0 3.0 0.00 0.00 0.00 62 996.2
20260503032503 45 172 0.0 2.0 0.00 0.00 0.00 62 996.3
20260503031511 45 139 1.0 2.0 0.00 0.00 0.00 62 996.3
20260503030502 45 170 0.0 2.0 0.00 0.00 0.00 61 996.5
20260503025509 45 0.0 0.0 0.00 0.00 0.00 60 996.5
20260503024459 45 113 0.0 2.0 0.00 0.00 0.00 61 996.4
20260503023506 45 0.0 0.0 0.00 0.00 0.00 60 996.5
20260503022456 46 0.0 0.0 0.00 0.00 0.00 60 996.5
20260503021504 45 158 0.0 2.0 0.00 0.00 0.00 59 996.4
20260503020511 46 0.0 0.0 0.00 0.00 0.00 58 996.5
20260503015502 47 158 0.0 2.0 0.00 0.00 0.00 57 996.4
20260503014509 47 158 0.0 1.0 0.00 0.00 0.00 56 996.3
20260503013539 48 0.0 0.0 0.00 0.00 0.00 54 996.2
20260503012507 49 0.0 0.0 0.00 0.00 0.00 53 996.3
20260503011458 50 0.0 0.0 0.00 0.00 0.00 49 996.2
20260503010523 51 113 0.0 2.0 0.00 0.00 0.00 48 996.2
20260503005512 52 169 1.0 2.0 0.00 0.00 0.00 47 996.3
20260503004502 53 135 0.0 3.0 0.00 0.00 0.00 45 996.3
20260503003511 54 93 2.0 4.0 0.00 0.00 0.00 44 996.2
20260503002500 54 109 0.0 2.0 0.00 0.00 0.00 44 996.3
20260503001508 55 354 1.0 3.0 0.00 0.00 0.00 43 996.4